Location: Vancouver
(49.2500°N, 123.1330°W)
Time: 23:34:28
(UTC-07:00)

AO-27 - Visible Passes

Search period start: 01 April 2015 00:00
Search period end: 11 April 2015 00:00
Orbit: 786 x 798 km, 98.7° (Epoch: 31 March)

Date Brightness Start Highest point End Pass type
(mag) Time Alt. Az. Time Alt. Az. Time Alt. Az.
01 Apr 10.1 02:12:27 10° ENE 02:14:23 12° E 02:14:32 12° E visible
01 Apr 7.6 03:49:39 10° NNE 03:54:53 80° ESE 03:55:19 74° SSE visible
01 Apr 9.2 05:30:16 10° NNW 05:33:52 19° WNW 05:36:05 14° W visible
02 Apr 8.3 03:20:53 10° NNE 03:25:53 47° E 03:26:10 46° ESE visible
02 Apr 8.7 05:00:46 10° N 05:05:15 30° WNW 05:06:57 24° W visible
03 Apr 9.2 02:52:22 10° NE 02:56:44 27° E 02:57:01 27° E visible
03 Apr 8.0 04:31:32 10° N 04:36:32 48° WNW 04:37:48 40° WSW visible
04 Apr 9.9 02:24:24 10° NE 02:27:26 16° E 02:27:53 16° E visible
04 Apr 7.5 04:02:28 10° NNE 04:07:42 82° WNW 04:08:40 60° SSW visible
04 Apr 9.5 05:43:29 10° NNW 05:46:31 15° NW 05:49:22 10° W visible
05 Apr 7.9 03:33:36 10° NNE 03:38:45 59° E 03:39:31 53° SE visible
05 Apr 8.9 05:13:47 10° N 05:17:57 24° WNW 05:20:17 18° W visible
06 Apr 8.8 03:04:57 10° NNE 03:09:40 34° E 03:10:22 33° ESE visible
06 Apr 8.3 04:44:27 10° N 04:49:16 39° WNW 04:51:08 29° WSW visible
07 Apr 9.6 02:36:42 10° NE 02:40:26 20° E 02:41:13 20° ESE visible
07 Apr 7.7 04:15:19 10° N 04:20:29 65° WNW 04:22:00 44° SW visible
07 Apr 9.6 05:56:54 10° NNW 05:59:08 13° NW 06:01:10 10° WNW visible
08 Apr 10.1 02:09:34 10° ENE 02:11:01 11° E 02:12:04 11° E visible
08 Apr 7.7 03:46:22 10° NNE 03:51:36 75° ESE 03:52:51 52° S visible
08 Apr 9.2 05:26:53 10° NNW 05:30:37 20° WNW 05:33:37 12° W visible
09 Apr 8.5 03:17:37 10° NNE 03:22:34 43° E 03:23:41 38° SE visible
09 Apr 8.6 04:57:25 10° N 05:01:59 31° WNW 05:04:28 21° WSW visible
10 Apr 9.2 02:49:09 10° NE 02:53:24 25° E 02:54:32 24° ESE visible
10 Apr 7.9 04:28:12 10° N 04:33:15 51° WNW 04:35:19 32° SW visible
